Regional Weather Roundup
Issued by NWS

Home | Current Version | Previous Version | Graphics & Text | Print | Product List | Glossary On
Versions: 1 2 3 4 5 6 7 8 9 10 11 12 13 14 15 16 17 18 19 20 21 22 23 24 25 26 27 28 29 30 31 32 33 34 35 36 37 38 39 40 41 42 43 44 45 46 47 48 49 50
000
ASUS43 KFSD 151810
RWRSD

WEATHER ROUNDUP FOR SOUTH DAKOTA
NATIONAL WEATHER SERVICE SIOUX FALLS SD
1200 PM CST FRI DEC 15 2017

NOTE: "FAIR" INDICATES FEW OR NO CLOUDS BELOW 12,000 FEET WITH NO
SIGNIFICANT WEATHER AND/OR OBSTRUCTIONS TO VISIBILITY.


SDZ001>005-009-010-012>017-151900-
NORTHWEST AND NORTH CENTRAL SOUTH DAKOTA

CITY           SKY/WX    TMP DP  RH WIND       PRES   REMARKS
BUFFALO          N/A     43  27  53 W17       29.65F
FAITH            N/A     42  25  50 W17       29.72F
MOBRIDGE       CLOUDY    38  26  62 S7        29.68F
$$

SDZ012>016-024>037-041>051-057-063-072>074-151900-
SOUTHWEST AND SOUTH CENTRAL SOUTH DAKOTA

CITY           SKY/WX    TMP DP  RH WIND       PRES   REMARKS
RAPID CTY ARPT SUNNY     48  18  30 S6        29.79F
PIERRE         SUNNY     35  24  64 SW16      29.76F WCI  25
CUSTER         CLOUDY    44   8  23 W21       29.82F
ELLSWORTH AFB  SUNNY     50  17  26 S7        29.77F
PHILIP         SUNNY     40  26  57 SW21      29.78F
PINE RIDGE     SUNNY     44  20  38 W13G24    29.86F
SPEARFISH      FAIR      52  14  22 W22G38    29.78F
WINNER         FAIR      38  27  64 SW10      29.81F
$$

SDZ004>011-016>023-039-040-151900-
NORTHEAST SOUTH DAKOTA

CITY           SKY/WX    TMP DP  RH WIND       PRES   REMARKS
ABERDEEN       CLOUDY    34  26  72 SW12      29.77F WCI  25
WATERTOWN      CLOUDY    31  28  89 SW12      29.77F WCI  22
BROOKINGS      SUNNY     34  27  75 W8        29.80F WCI  27
SISSETON         N/A     29  27  92 S9        29.77F WCI  20
$$

SDZ017-020-022-023-036>040-048>070-151900-
SOUTHEAST SOUTH DAKOTA

CITY           SKY/WX    TMP DP  RH WIND       PRES   REMARKS
SIOUX FALLS    PTSUNNY   38  27  64 SW9       29.84F
HURON          MOSUNNY   38  26  62 S8        29.80F
CHAMBERLAIN    CLOUDY    37  29  75 S7        29.81F
MITCHELL       CLOUDY    38  25  59 SW8       29.83F
YANKTON        MOSUNNY   36  24  62 SW13      29.86F
$$

ABBREVIATIONS USED IN REMARKS
   TC - TEMPERATURE IN CELSIUS
  WCI - WIND CHILL INDEX
   HX - HEAT INDEX
  VSB - VISIBILITY





USA.gov is the U.S. government's official web portal to all federal, state and local government web resources and services.